Location: Unspecified
(33.6682°S, 0.0000°E)
Time: 05:15:17
(UTC+00:00)

Tiros 1 despin weight - Pass Details

Date: 26 June 2019
Orbit: 594 x 643 km, 48.2° (Epoch: 22 July)

Event Time Altitude Azimuth Distance (km) Brightness Sun altitude
Rises 12:59:05 0° 230° (SW) 2,958 ? 31.4°
Reaches altitude 10° 13:02:25 10° 206° (SSW) 2,054 ? 31.2°
Maximum altitude 13:05:05 15° 172° (S) 1,763 ? 31.1°
Drops below altitude 10° 13:07:44 10° 137° (SE) 2,057 ? 30.9°
Sets 13:11:06 0° 113° (ESE) 2,965 ? 30.7°
